ONEWEB-0319, 49105

Orbit data source: Space-Track

ONEWEB-0319, 49105 is a payload satellite owned by One Web (NAA) (UK) in LEO that was launched on Sat, 21 Aug 2021 UTC via a SOYUZ-2-1B launch vehicle from the Tyuratam Missile And Space Complex (TTMTR). Payload-class satellites include a variety of spacecraft equipped with specific instruments for various scientific and technological missions. These include communications satellites like Starlink; space stations such as the ISS; scientific satellites like the Hubble; Earth observation satellites from companies like Planet Labs, Umbra, and HawkEye 360; GPS; miniature CubeSats for education and research; and military/defense satellites.

Loading next visibility...
Identifier
49105, 2021-075AG
Orbit
LEO
Country
Flag of UKUK
Related business
Manufacturer
One Web
Mission
Operational Commercial Communications
Bus & Motor
ARROW, Unknown motor
Mass
148 kg wet, ~140 kg dry
Launch date (UTC)
2021-08-21 (5 years ago)
Launch vehicle
SOYUZ-2-1B
Launch site
Tyuratam Missile And Space Complex (TTMTR)
Object type
Payload
Rocket body
Debris
Shape & HBR
Trap Box + 2 Pan, 6.7 m
Radar Cross Section
3.464 m², Large (>1 m²)

Expand to show TLE details & history
Last TLE update: 8 hours ago

TLE from 8 hours ago
0 ONEWEB-0319
1 49105U 21075AG  26130.20532416  .00000074  00000-0  15693-3 0  9997
2 49105  87.9170  13.4186 0002182  93.5699 266.5682 13.17650055228606
Epoch: 2026-05-10T04:55Z
TLE epoch observation values (Epoch: 2026-05-10T04:55:40.007Z)
Latitude
-0.00003°
Longitude
71.49016°
Altitude
1,196.707 km
Speed
7.255 km/s
True Right ascension
00h 53m 40s
True Declination
0° 00' 00"
Sunlit
Object was in daylight at epoch
Visualization orbit readout
Latitude
Unknown
Longitude
Unknown
Altitude
Unknown
Speed
Unknown
Apparent Right ascension
Unknown
Apparent Declination
Unknown
Sunlit
N/A
Visualization observer readout
Local Sidereal Time
21:22:22
Azimuth
Unknown
Elevation
Unknown
Doppler factor
Unknown
Orbital elements
Apogee altitude
1,192.47 km
Perigee altitude
1,189.166 km
Semi-major axis
7,568.955 km
Eccentricity
0.00022
Inclination
87.917°
RAAN
13.4186°
Arg. of periapsis
93.5699°
True anomaly
266.54324°
Mean anomaly
266.5682°
Eccentric anomaly
266.55572°
Mean motion
3.29602 °/min
Orbital period
109.22 mins
BSTAR
0.00015693
Loading maneuver chart data...
Computing Atmospheric mass density...
Loading historical data...
Loading historical data...
Loading historical data...
Loading historical data...
Loading historical data...
Loading historical data...
Loading historical data...

Documentation

Showing up to 5 results
|